カタログに戻る

STARLINK-34410

運用中通信VLEO
NORAD 64440·PAYLOAD·🇺🇸 United States

打ち上げ Jun 18, 2025 から Cape Canaveral Space Force Station

Loading…

次のパス (今後24時間)

TLE

最新Source: CelesTrak SupGP

元期: Sep 14, 2026, 22:34 UTC

1 64440C 25130C   26257.94076389  .00053245  00000+0  15736-2 0  2576
2 64440  53.1581 287.6938 0001195  91.3733 267.2353 15.34355744    18

AllMySatでSTARLINK-34410をリアルタイム追跡

Download on the App Store